Time,TemperatureF,DewpointF,PressureIn,WindDirection,WindDirectionDegrees,WindSpeedMPH,WindSpeedGustMPH,Humidity,HourlyPrecipIn,Conditions,Clouds,dailyrainin,SoftwareType,DateUTC
2013-02-11 00:02:00,62.0,-99.9,-100.00,SE,145,6.0,10.0,-999,-99.99,,,-99.99,,2013-02-11 05:02:00,
2013-02-11 00:12:00,62.0,-99.9,-100.00,SSE,150,6.0,9.0,-999,-99.99,,,-99.99,,2013-02-11 05:12:00,
2013-02-11 00:22:00,62.0,-99.9,-100.00,SSE,155,6.0,8.0,-999,-99.99,,,-99.99,,2013-02-11 05:22:00,
2013-02-11 00:32:00,62.0,-99.9,-100.00,SE,145,6.0,10.0,-999,-99.99,,,-99.99,,2013-02-11 05:32:00,
2013-02-11 00:42:00,62.0,-99.9,-100.00,SE,135,8.0,11.0,-999,-99.99,,,-99.99,,2013-02-11 05:42:00,
2013-02-11 00:53:00,62.0,-99.9,-100.00,SE,140,9.0,11.0,-999,-99.99,,,-99.99,,2013-02-11 05:53:00,
2013-02-11 01:02:00,61.0,-99.9,-100.00,SE,145,9.0,11.0,-999,-99.99,,,-99.99,,2013-02-11 06:02:00,
2013-02-11 01:12:00,61.0,-99.9,-100.00,SSE,150,8.0,11.0,-999,-99.99,,,-99.99,,2013-02-11 06:12:00,
2013-02-11 01:22:00,61.0,-99.9,-100.00,SE,140,11.0,13.0,-999,-99.99,,,-99.99,,2013-02-11 06:22:00,
2013-02-11 01:32:00,61.0,-99.9,-100.00,SE,135,11.0,13.0,-999,-99.99,,,-99.99,,2013-02-11 06:32:00,
2013-02-11 01:42:00,60.0,-99.9,-100.00,SE,135,10.0,13.0,-999,-99.99,,,-99.99,,2013-02-11 06:42:00,
2013-02-11 01:52:00,61.0,-99.9,-100.00,SE,135,10.0,14.0,-999,-99.99,,,-99.99,,2013-02-11 06:52:00,
2013-02-11 02:02:00,60.0,-99.9,-100.00,SE,125,7.0,11.0,-999,-99.99,,,-99.99,,2013-02-11 07:02:00,
2013-02-11 02:12:00,61.0,-99.9,-100.00,SSE,150,6.0,9.0,-999,-99.99,,,-99.99,,2013-02-11 07:12:00,
2013-02-11 02:22:00,61.0,-99.9,-100.00,SE,145,9.0,11.0,-999,-99.99,,,-99.99,,2013-02-11 07:22:00,
2013-02-11 02:32:00,62.0,-99.9,-100.00,SSE,165,8.0,11.0,-999,-99.99,,,-99.99,,2013-02-11 07:32:00,
2013-02-11 02:42:00,62.0,-99.9,-100.00,SE,145,9.0,11.0,-999,-99.99,,,-99.99,,2013-02-11 07:42:00,
2013-02-11 02:52:00,61.0,-99.9,-100.00,SE,145,9.0,11.0,-999,-99.99,,,-99.99,,2013-02-11 07:52:00,
2013-02-11 03:01:00,61.0,-99.9,-100.00,SE,135,9.0,11.0,-999,-99.99,,,-99.99,,2013-02-11 08:01:00,
2013-02-11 03:11:00,61.0,-99.9,-100.00,SE,125,8.0,10.0,-999,-99.99,,,-99.99,,2013-02-11 08:11:00,
2013-02-11 03:22:00,61.0,-99.9,-100.00,SE,145,8.0,12.0,-999,-99.99,,,-99.99,,2013-02-11 08:22:00,
2013-02-11 03:32:00,60.0,-99.9,-100.00,SSE,165,6.0,9.0,-999,-99.99,,,-99.99,,2013-02-11 08:32:00,
2013-02-11 03:42:00,60.0,-99.9,-100.00,South,185,5.0,8.0,-999,-99.99,,,-99.99,,2013-02-11 08:42:00,
2013-02-11 03:52:00,61.0,-99.9,-100.00,South,170,6.0,8.0,-999,-99.99,,,-99.99,,2013-02-11 08:52:00,
2013-02-11 04:02:00,60.0,-99.9,-100.00,SE,145,9.0,10.0,-999,-99.99,,,-99.99,,2013-02-11 09:02:00,
2013-02-11 04:12:00,60.0,-99.9,-100.00,SE,145,8.0,10.0,-999,-99.99,,,-99.99,,2013-02-11 09:12:00,
2013-02-11 04:22:00,60.0,-99.9,-100.00,SSE,165,10.0,12.0,-999,-99.99,,,-99.99,,2013-02-11 09:22:00,
2013-02-11 04:32:00,60.0,-99.9,-100.00,SSE,155,10.0,14.0,-999,-99.99,,,-99.99,,2013-02-11 09:32:00,
2013-02-11 04:42:00,60.0,-99.9,-100.00,SSE,160,12.0,14.0,-999,-99.99,,,-99.99,,2013-02-11 09:42:00,
2013-02-11 04:52:00,60.0,-99.9,-100.00,SSE,160,12.0,16.0,-999,-99.99,,,-99.99,,2013-02-11 09:52:00,
2013-02-11 05:02:00,60.0,-99.9,-100.00,SE,135,13.0,19.0,-999,-99.99,,,-99.99,,2013-02-11 10:02:00,
2013-02-11 05:11:00,60.0,-99.9,-100.00,SSE,165,14.0,19.0,-999,-99.99,,,-99.99,,2013-02-11 10:11:00,
2013-02-11 05:22:00,61.0,-99.9,-100.00,SSE,160,15.0,22.0,-999,-99.99,,,-99.99,,2013-02-11 10:22:00,
2013-02-11 05:32:00,62.0,-99.9,-100.00,South,170,14.0,21.0,-999,-99.99,,,-99.99,,2013-02-11 10:32:00,
2013-02-11 05:42:00,62.0,-99.9,-100.00,South,170,15.0,21.0,-999,-99.99,,,-99.99,,2013-02-11 10:42:00,
2013-02-11 05:52:00,62.0,-99.9,-100.00,South,170,14.0,21.0,-999,-99.99,,,-99.99,,2013-02-11 10:52:00,
2013-02-11 06:02:00,62.0,-99.9,-100.00,South,180,14.0,22.0,-999,-99.99,,,-99.99,,2013-02-11 11:02:00,
2013-02-11 06:11:00,62.0,-99.9,-100.00,South,185,14.0,24.0,-999,-99.99,,,-99.99,,2013-02-11 11:11:00,
2013-02-11 06:22:00,62.0,-99.9,-100.00,South,175,16.0,24.0,-999,-99.99,,,-99.99,,2013-02-11 11:22:00,
2013-02-11 06:32:00,62.0,-99.9,-100.00,South,180,14.0,26.0,-999,-99.99,,,-99.99,,2013-02-11 11:32:00,
2013-02-11 06:42:00,61.0,-99.9,-100.00,South,180,16.0,26.0,-999,-99.99,,,-99.99,,2013-02-11 11:42:00,
2013-02-11 06:52:00,61.0,-99.9,-100.00,South,190,13.0,26.0,-999,-99.99,,,-99.99,,2013-02-11 11:52:00,
2013-02-11 07:03:00,61.0,-99.9,-100.00,South,180,10.0,21.0,-999,-99.99,,,-99.99,,2013-02-11 12:03:00,
2013-02-11 07:12:00,61.0,-99.9,-100.00,South,180,12.0,19.0,-999,-99.99,,,-99.99,,2013-02-11 12:12:00,
2013-02-11 07:22:00,61.0,-99.9,-100.00,South,190,11.0,21.0,-999,-99.99,,,-99.99,,2013-02-11 12:22:00,
2013-02-11 07:32:00,61.0,-99.9,-100.00,SSW,195,12.0,21.0,-999,-99.99,,,-99.99,,2013-02-11 12:32:00,
2013-02-11 07:43:00,61.0,-99.9,-100.00,South,190,13.0,19.0,-999,-99.99,,,-99.99,,2013-02-11 12:43:00,
2013-02-11 07:53:00,61.0,-99.9,-100.00,South,190,13.0,19.0,-999,-99.99,,,-99.99,,2013-02-11 12:53:00,
2013-02-11 08:02:00,61.0,-99.9,-100.00,SW,215,12.0,20.0,-999,-99.99,,,-99.99,,2013-02-11 13:02:00,
2013-02-11 08:12:00,61.0,-99.9,-100.00,SSW,205,9.0,19.0,-999,-99.99,,,-99.99,,2013-02-11 13:12:00,
2013-02-11 08:22:00,61.0,-99.9,-100.00,SSW,205,11.0,18.0,-999,-99.99,,,-99.99,,2013-02-11 13:22:00,
2013-02-11 08:33:00,61.0,-99.9,-100.00,SW,215,12.0,19.0,-999,-99.99,,,-99.99,,2013-02-11 13:33:00,
2013-02-11 08:42:00,61.0,-99.9,-100.00,SSW,205,13.0,21.0,-999,-99.99,,,-99.99,,2013-02-11 13:42:00,
2013-02-11 08:52:00,61.0,-99.9,-100.00,SSW,195,11.0,20.0,-999,-99.99,,,-99.99,,2013-02-11 13:52:00,
2013-02-11 09:02:00,61.0,-99.9,-100.00,SSW,200,10.0,22.0,-999,-99.99,,,-99.99,,2013-02-11 14:02:00,
2013-02-11 09:12:00,61.0,-99.9,-100.00,SSW,205,10.0,24.0,-999,-99.99,,,-99.99,,2013-02-11 14:12:00,
2013-02-11 09:22:00,61.0,-99.9,-100.00,SW,215,14.0,24.0,-999,-99.99,,,-99.99,,2013-02-11 14:22:00,
2013-02-11 09:33:00,61.0,-99.9,-100.00,South,190,14.0,26.0,-999,-99.99,,,-99.99,,2013-02-11 14:33:00,
2013-02-11 09:42:00,62.0,-99.9,-100.00,SSW,210,17.0,29.0,-999,-99.99,,,-99.99,,2013-02-11 14:42:00,
2013-02-11 09:53:00,62.0,-99.9,-100.00,SSW,205,16.0,24.0,-999,-99.99,,,-99.99,,2013-02-11 14:53:00,
2013-02-11 10:02:00,62.0,-99.9,-100.00,SW,230,11.0,21.0,-999,-99.99,,,-99.99,,2013-02-11 15:02:00,
2013-02-11 10:12:00,62.0,-99.9,-100.00,SSW,210,7.0,18.0,-999,-99.99,,,-99.99,,2013-02-11 15:12:00,
2013-02-11 10:22:00,62.0,-99.9,-100.00,SSW,195,11.0,17.0,-999,-99.99,,,-99.99,,2013-02-11 15:22:00,
2013-02-11 10:32:00,62.0,-99.9,-100.00,SSW,200,10.0,17.0,-999,-99.99,,,-99.99,,2013-02-11 15:32:00,
2013-02-11 10:43:00,62.0,-99.9,-100.00,SSW,200,10.0,18.0,-999,-99.99,,,-99.99,,2013-02-11 15:43:00,
2013-02-11 10:52:00,62.0,-99.9,-100.00,South,190,9.0,19.0,-999,-99.99,,,-99.99,,2013-02-11 15:52:00,
2013-02-11 11:02:00,62.0,-99.9,-100.00,SSW,200,10.0,19.0,-999,-99.99,,,-99.99,,2013-02-11 16:02:00,
2013-02-11 11:12:00,62.0,-99.9,-100.00,SSW,210,10.0,16.0,-999,-99.99,,,-99.99,,2013-02-11 16:12:00,
2013-02-11 11:22:00,62.0,-99.9,-100.00,SW,215,9.0,18.0,-999,-99.99,,,-99.99,,2013-02-11 16:22:00,
2013-02-11 11:32:00,62.0,-99.9,-100.00,SW,215,8.0,18.0,-999,-99.99,,,-99.99,,2013-02-11 16:32:00,
2013-02-11 11:43:00,63.0,-99.9,-100.00,SSW,200,14.0,23.0,-999,-99.99,,,-99.99,,2013-02-11 16:43:00,
2013-02-11 11:53:00,62.0,-99.9,-100.00,SW,225,9.0,24.0,-999,-99.99,,,-99.99,,2013-02-11 16:53:00,
2013-02-11 12:02:00,62.0,-99.9,-100.00,West,260,8.0,16.0,-999,-99.99,,,-99.99,,2013-02-11 17:02:00,
2013-02-11 12:12:00,62.0,-99.9,-100.00,SW,220,6.0,15.0,-999,-99.99,,,-99.99,,2013-02-11 17:12:00,
2013-02-11 12:22:00,62.0,-99.9,-100.00,SW,230,17.0,23.0,-999,-99.99,,,-99.99,,2013-02-11 17:22:00,
2013-02-11 12:33:00,62.0,-99.9,-100.00,SSW,210,14.0,27.0,-999,-99.99,,,-99.99,,2013-02-11 17:33:00,
2013-02-11 12:42:00,62.0,-99.9,-100.00,SSW,195,14.0,26.0,-999,-99.99,,,-99.99,,2013-02-11 17:42:00,
2013-02-11 12:53:00,62.0,-99.9,-100.00,SW,220,19.0,29.0,-999,-99.99,,,-99.99,,2013-02-11 17:53:00,
2013-02-11 13:02:00,62.0,-99.9,-100.00,SW,220,19.0,29.0,-999,-99.99,,,-99.99,,2013-02-11 18:02:00,
2013-02-11 13:12:00,62.0,-99.9,-100.00,SSW,200,17.0,29.0,-999,-99.99,,,-99.99,,2013-02-11 18:12:00,
2013-02-11 13:22:00,62.0,-99.9,-100.00,SW,215,18.0,34.0,-999,-99.99,,,-99.99,,2013-02-11 18:22:00,
2013-02-11 13:32:00,62.0,-99.9,-100.00,SSW,210,17.0,29.0,-999,-99.99,,,-99.99,,2013-02-11 18:32:00,
2013-02-11 13:42:00,62.0,-99.9,-100.00,South,190,18.0,27.0,-999,-99.99,,,-99.99,,2013-02-11 18:42:00,
2013-02-11 13:50:00,63.0,-99.9,-100.00,SSW,205,16.0,24.0,-999,-99.99,,,-99.99,,2013-02-11 18:50:00,
2013-02-11 13:54:00,62.0,-99.9,-100.00,South,190,18.0,27.0,-999,-99.99,,,-99.99,,2013-02-11 18:54:00,
2013-02-11 14:02:00,63.0,-99.9,-100.00,SW,220,16.0,28.0,-999,-99.99,,,-99.99,,2013-02-11 19:02:00,
2013-02-11 14:12:00,63.0,-99.9,-100.00,South,190,14.0,24.0,-999,-99.99,,,-99.99,,2013-02-11 19:12:00,
2013-02-11 14:22:00,63.0,-99.9,-100.00,SSW,205,16.0,24.0,-999,-99.99,,,-99.99,,2013-02-11 19:22:00,
2013-02-11 14:32:00,63.0,-99.9,-100.00,SSW,205,16.0,24.0,-999,-99.99,,,-99.99,,2013-02-11 19:32:00,
2013-02-11 14:42:00,63.0,-99.9,-100.00,SSW,205,16.0,24.0,-999,-99.99,,,-99.99,,2013-02-11 19:42:00,
2013-02-11 15:02:00,63.0,-99.9,-100.00,SSW,195,9.0,21.0,-999,-99.99,,,-99.99,,2013-02-11 20:02:00,
2013-02-11 15:12:00,63.0,-99.9,-100.00,SSW,205,17.0,26.0,-999,-99.99,,,-99.99,,2013-02-11 20:12:00,
2013-02-11 15:22:00,63.0,-99.9,-100.00,SSW,195,11.0,25.0,-999,-99.99,,,-99.99,,2013-02-11 20:22:00,
2013-02-11 15:32:00,63.0,-99.9,-100.00,SSW,205,17.0,25.0,-999,-99.99,,,-99.99,,2013-02-11 20:32:00,
2013-02-11 15:42:00,64.0,-99.9,-100.00,South,190,10.0,24.0,-999,-99.99,,,-99.99,,2013-02-11 20:42:00,
2013-02-11 15:52:00,64.0,-99.9,-100.00,SW,220,9.0,18.0,-999,-99.99,,,-99.99,,2013-02-11 20:52:00,
2013-02-11 16:02:00,64.0,-99.9,-100.00,SW,220,14.0,26.0,-999,-99.99,,,-99.99,,2013-02-11 21:02:00,
2013-02-11 16:12:00,64.0,-99.9,-100.00,SW,225,14.0,26.0,-999,-99.99,,,-99.99,,2013-02-11 21:12:00,
2013-02-11 16:22:00,64.0,-99.9,-100.00,SW,225,9.0,21.0,-999,-99.99,,,-99.99,,2013-02-11 21:22:00,
2013-02-11 16:32:00,64.0,-99.9,-100.00,SW,235,15.0,20.0,-999,-99.99,,,-99.99,,2013-02-11 21:32:00,
2013-02-11 16:42:00,63.0,-99.9,-100.00,WSW,245,14.0,24.0,-999,-99.99,,,-99.99,,2013-02-11 21:42:00,
2013-02-11 16:52:00,63.0,-99.9,-100.00,WSW,240,14.0,23.0,-999,-99.99,,,-99.99,,2013-02-11 21:52:00,
2013-02-11 17:02:00,63.0,-99.9,-100.00,WSW,245,9.0,17.0,-999,-99.99,,,-99.99,,2013-02-11 22:02:00,
2013-02-11 17:12:00,63.0,-99.9,-100.00,WSW,245,9.0,16.0,-999,-99.99,,,-99.99,,2013-02-11 22:12:00,
2013-02-11 17:22:00,63.0,-99.9,-100.00,SSW,210,4.0,14.0,-999,-99.99,,,-99.99,,2013-02-11 22:22:00,
2013-02-11 17:32:00,63.0,-99.9,-100.00,WSW,245,7.0,11.0,-999,-99.99,,,-99.99,,2013-02-11 22:32:00,
2013-02-11 17:42:00,63.0,-99.9,-100.00,SW,235,7.0,11.0,-999,-99.99,,,-99.99,,2013-02-11 22:42:00,
2013-02-11 17:53:00,63.0,-99.9,-100.00,SW,230,9.0,11.0,-999,-99.99,,,-99.99,,2013-02-11 22:53:00,
2013-02-11 18:02:00,63.0,-99.9,-100.00,SW,220,6.0,11.0,-999,-99.99,,,-99.99,,2013-02-11 23:02:00,
2013-02-11 18:12:00,63.0,-99.9,-100.00,WSW,240,5.0,10.0,-999,-99.99,,,-99.99,,2013-02-11 23:12:00,
2013-02-11 18:22:00,63.0,-99.9,-100.00,South,185,3.0,8.0,-999,-99.99,,,-99.99,,2013-02-11 23:22:00,
2013-02-11 18:32:00,63.0,-99.9,-100.00,SSW,210,3.0,6.0,-999,-99.99,,,-99.99,,2013-02-11 23:32:00,
2013-02-11 18:42:00,63.0,-99.9,-100.00,SSW,195,4.0,9.0,-999,-99.99,,,-99.99,,2013-02-11 23:42:00,
2013-02-11 18:53:00,63.0,-99.9,-100.00,SSW,210,2.0,8.0,-999,-99.99,,,-99.99,,2013-02-11 23:53:00,
2013-02-11 19:02:00,63.0,-99.9,-100.00,SW,225,6.0,9.0,-999,-99.99,,,-99.99,,2013-02-12 00:02:00,
2013-02-11 19:12:00,63.0,-99.9,-100.00,WSW,240,7.0,10.0,-999,-99.99,,,-99.99,,2013-02-12 00:12:00,
2013-02-11 19:22:00,63.0,-99.9,-100.00,WSW,245,9.0,11.0,-999,-99.99,,,-99.99,,2013-02-12 00:22:00,
2013-02-11 19:32:00,62.0,-99.9,-100.00,SW,230,7.0,11.0,-999,-99.99,,,-99.99,,2013-02-12 00:32:00,
2013-02-11 19:43:00,62.0,-99.9,-100.00,WSW,255,9.0,12.0,-999,-99.99,,,-99.99,,2013-02-12 00:43:00,
2013-02-11 19:52:00,62.0,-99.9,-100.00,West,265,8.0,12.0,-999,-99.99,,,-99.99,,2013-02-12 00:52:00,
2013-02-11 20:02:00,62.0,-99.9,-100.00,West,260,12.0,15.0,-999,-99.99,,,-99.99,,2013-02-12 01:02:00,
2013-02-11 20:12:00,62.0,-99.9,-100.00,WSW,255,14.0,18.0,-999,-99.99,,,-99.99,,2013-02-12 01:12:00,
2013-02-11 20:22:00,62.0,-99.9,-100.00,WSW,250,9.0,17.0,-999,-99.99,,,-99.99,,2013-02-12 01:22:00,
2013-02-11 20:32:00,62.0,-99.9,-100.00,West,260,5.0,18.0,-999,-99.99,,,-99.99,,2013-02-12 01:32:00,
2013-02-11 20:42:00,62.0,-99.9,-100.00,WSW,255,11.0,15.0,-999,-99.99,,,-99.99,,2013-02-12 01:42:00,
2013-02-11 20:52:00,62.0,-99.9,-100.00,West,275,11.0,16.0,-999,-99.99,,,-99.99,,2013-02-12 01:52:00,
2013-02-11 21:02:00,62.0,-99.9,-100.00,West,270,11.0,16.0,-999,-99.99,,,-99.99,,2013-02-12 02:02:00,
2013-02-11 21:12:00,61.0,-99.9,-100.00,West,275,11.0,15.0,-999,-99.99,,,-99.99,,2013-02-12 02:12:00,
2013-02-11 21:22:00,61.0,-99.9,-100.00,West,275,9.0,15.0,-999,-99.99,,,-99.99,,2013-02-12 02:22:00,
2013-02-11 21:32:00,61.0,-99.9,-100.00,WNW,300,11.0,15.0,-999,-99.99,,,-99.99,,2013-02-12 02:32:00,
2013-02-11 21:42:00,60.0,-99.9,-100.00,NW,305,6.0,14.0,-999,-99.99,,,-99.99,,2013-02-12 02:42:00,
2013-02-11 21:53:00,61.0,-99.9,-100.00,NW,310,4.0,7.0,-999,-99.99,,,-99.99,,2013-02-12 02:53:00,
2013-02-11 22:02:00,60.0,-99.9,-100.00,NW,305,7.0,8.0,-999,-99.99,,,-99.99,,2013-02-12 03:02:00,
2013-02-11 22:11:00,60.0,-99.9,-100.00,WSW,250,6.0,8.0,-999,-99.99,,,-99.99,,2013-02-12 03:11:00,
2013-02-11 22:22:00,60.0,-99.9,-100.00,SSW,195,5.0,9.0,-999,-99.99,,,-99.99,,2013-02-12 03:22:00,
2013-02-11 22:32:00,59.0,-99.9,-100.00,SSW,195,4.0,9.0,-999,-99.99,,,-99.99,,2013-02-12 03:32:00,
2013-02-11 22:42:00,59.0,-99.9,-100.00,SSE,165,6.0,8.0,-999,-99.99,,,-99.99,,2013-02-12 03:42:00,
2013-02-11 22:52:00,59.0,-99.9,-100.00,South,170,9.0,11.0,-999,-99.99,,,-99.99,,2013-02-12 03:52:00,
2013-02-11 23:02:00,59.0,-99.9,-100.00,SSW,195,8.0,11.0,-999,-99.99,,,-99.99,,2013-02-12 04:02:00,
2013-02-11 23:11:00,59.0,-99.9,-100.00,South,190,5.0,12.0,-999,-99.99,,,-99.99,,2013-02-12 04:11:00,
2013-02-11 23:22:00,59.0,-99.9,-100.00,SSE,150,6.0,9.0,-999,-99.99,,,-99.99,,2013-02-12 04:22:00,
2013-02-11 23:32:00,59.0,-99.9,-100.00,South,185,7.0,9.0,-999,-99.99,,,-99.99,,2013-02-12 04:32:00,
2013-02-11 23:42:00,59.0,-99.9,-100.00,SW,230,10.0,15.0,-999,-99.99,,,-99.99,,2013-02-12 04:42:00,
2013-02-11 23:52:00,59.0,-99.9,-100.00,SW,220,9.0,14.0,-999,-99.99,,,-99.99,,2013-02-12 04:52:00,